Home   Weather   Hilo   Past weeks
Flag for USA

Past Weather in Hilo, Hawaii, USA — Yesterday and Last 2 Weeks

Now
73 °F

Light rain. Fog.


Feels Like: 71 °F
Forecast: 83 / 72 °F
Wind: 7 mph from West

Location: Hilo International Airport

Current Time: May 21, 2019 at 8:47:46 am

Latest Report: May 21, 2019 at 7:53 am


Visibility: 4 mi

Pressure: 30.06 "Hg

Humidity: 88%

Dew Point: 69 °F

Location of HiloLocation

Past Weather in Hilo — Graph

°F

Hilo Temperature Yesterday

Maximum temperature yesterday: 85 °F (at 11:53 am)
Minimum temperature yesterday: 71 °F (at 2:53 am)
Average temperature yesterday: 77 °F

High & Low Weather Summary for the Past Weeks

 TemperatureHumidityPressure
High87 °F (May 19, 10:53 am)94% (May 15, 1:26 am)30.13 "Hg (May 15, 1:26 am)
Low65 °F (May 8, 5:53 am)48% (May 19, 11:53 am)29.77 "Hg (May 6, 3:53 pm)
Average76 °F71%30.02 "Hg
* Reported May 6 6:53 am — May 21 6:53 am, Hilo. Weather by CustomWeather, © 2019

Note: Actual official high and low records may vary slightly from our data, if they occured in-between our weather recording intervals... More about our weather records

Advertising

Hilo Weather History for the Previous 24 Hours

Scroll right to see more
 ConditionsComfort  
Time TempWeatherWind HumidityBarometerVisibility
6:53 am
Tue, May 21
72 °FMostly cloudy.10 mph78%30.04 "Hg10 mi
6:28 am72 °FLight rain. Cloudy.12 mph78%30.04 "Hg3 mi
6:13 am72 °FMostly cloudy.6 mph81%30.04 "Hg10 mi
5:53 am72 °FLight rain. Overcast.8 mph78%30.02 "Hg10 mi
5:01 am71 °FLight rain. Overcast.No wind90%30.02 "Hg7 mi
4:38 am72 °FLight rain. Mostly cloudy.3 mph78%30.02 "Hg7 mi
3:53 am71 °FMostly cloudy.5 mph81%30.01 "Hg10 mi
3:11 am72 °FMostly cloudy.6 mph83%30.02 "Hg10 mi
3:01 am72 °FLight rain. Mostly cloudy.3 mph83%30.02 "Hg9 mi
2:01 am72 °FLight rain. Fog.7 mph88%30.03 "Hg4 mi
1:34 am73 °FLight rain. Mostly cloudy.5 mph83%30.04 "Hg6 mi
1:13 am73 °FMostly cloudy.7 mph83%30.05 "Hg10 mi
12:53 am74 °FOvercast.No wind82%30.04 "Hg10 mi
11:53 pm
Mon, May 20
74 °FPassing clouds.6 mph82%30.06 "Hg10 mi
10:53 pm75 °FMostly cloudy.6 mph82%30.07 "Hg10 mi
10:23 pm75 °FMostly cloudy.6 mph85%30.08 "Hg10 mi
9:53 pm76 °FPassing clouds.3 mph82%30.07 "Hg10 mi
8:53 pm76 °FPartly cloudy.5 mph80%30.06 "Hg10 mi
8:31 pm75 °FPartly cloudy.5 mph83%30.05 "Hg10 mi
7:53 pm77 °FPassing clouds.3 mph79%30.04 "Hg10 mi
6:53 pm78 °FPartly cloudy.7 mph74%30.02 "Hg10 mi
6:33 pm79 °FBroken clouds.6 mph74%30.02 "Hg10 mi
5:53 pm79 °FScattered clouds.9 mph72%30.01 "Hg10 mi
4:53 pm81 °FBroken clouds.10 mph67%29.99 "Hg10 mi
4:10 pm82 °FBroken clouds.13 mph66%30.00 "Hg10 mi
3:53 pm83 °FBroken clouds.14 mph63%29.99 "Hg10 mi
2:53 pm83 °FPartly sunny.13 mph61%30.00 "Hg10 mi
1:53 pm84 °FPassing clouds.14 mph57%30.01 "Hg10 mi
12:53 pm85 °FScattered clouds.12 mph57%30.03 "Hg10 mi
11:53 am85 °FBroken clouds.13 mph57%30.04 "Hg10 mi
10:53 am83 °FBroken clouds.12 mph61%30.06 "Hg10 mi
9:53 am81 °FBroken clouds.9 mph65%30.06 "Hg10 mi
8:53 am81 °FScattered clouds.7 mph65%30.06 "Hg10 mi
Weather by CustomWeather, © 2019

See weather overview